[[{"header":{"parameterUnit":"m.s-1","parameterCategory":1,"la1":30.2991,"la2":30.254,"lo1":-89.0895,"lo2":-89.0444,"dy":0.0017,"dx":0.0017,"nx":28,"ny":28,"refTime":"2023-04-29T21:00:00:Z","depth":0,"parameterNumber":2,"parameterNumberName":"U-component_of_WINDS"},"data":[0,0,0,0,0,0,0,0,0,0,0,0,0,0,0,0,0,0,0,0,0,0,0,0,0,0,0,0,0,0,0,0,0,0,0,0,0,0,0,0,0,0,0,0,0,0,0,0,0,0,0,0,0,0,0,0,0,0,4.5358,4.5359,0,4.5431,4.5432,4.5432,4.5379,4.5377,4.5375,4.5373,4.5449,4.5453,4.5457,0,0,0,0,0,0,0,0,0,0,0,0,0,4.5175,4.5179,4.5358,4.5359,4.536,4.5431,4.5432,4.5433,4.538,4.5377,4.5374,4.5371,4.5447,4.5452,4.5457,0,0,0,0,0,0,0,0,0,0,0,0,0,4.5252,4.518,4.5358,4.5342,4.5341,4.543,4.5432,4.5433,4.538,4.5377,4.5373,4.537,4.5446,4.5452,4.5458,4.5567,0,0,4.5477,4.548,0,0,0,0,0,0,0,0,4.5248,4.5259,4.5343,4.5343,4.5342,4.5392,4.5395,4.5478,4.5381,4.5366,4.5372,4.5368,4.5433,4.544,4.5461,4.5571,4.5574,4.5478,4.5482,4.5484,4.5486,0,0,0,0,0,0,0,4.5242,4.5255,4.5387,4.5344,4.5344,4.5332,4.5339,4.5411,4.5418,4.5367,4.5363,4.5372,4.5432,4.5455,4.5463,4.5575,4.5478,4.5483,4.5487,4.549,4.578,4.5784,0,0,0,0,0,0,4.5238,4.5251,4.5384,4.5389,4.5285,4.5338,4.5346,4.538,4.5417,4.5419,4.5375,4.537,4.5446,4.5455,4.5465,4.5597,4.5484,4.549,4.5494,4.5777,4.5781,4.5786,0,0,0,0,0,0,4.5234,4.5251,4.5381,4.5319,4.5335,4.5345,4.5384,4.5383,4.5407,4.5424,4.5425,4.5398,4.5444,4.5456,4.5543,4.5599,4.5493,4.5499,4.5772,4.5778,4.5783,4.5862,0,0,0,0,0,0,4.5229,4.5249,4.529,4.532,4.5338,4.5457,4.5387,4.5387,4.5418,4.5411,4.5445,4.5447,4.5442,4.5534,4.5549,4.5606,4.5504,4.5767,4.5775,4.5782,4.5854,4.5869,4.5883,0,0,0,0,0,4.5223,4.5309,4.5293,4.5309,4.539,4.546,4.5471,4.5463,4.5422,4.5464,4.5475,4.5446,4.559,4.5543,4.556,4.562,4.5763,4.5772,4.5781,4.5848,4.5866,4.5882,0,0,0,0,0,0,4.5286,4.5313,4.5295,4.5393,4.5425,4.5451,4.5504,4.5483,4.5527,4.5519,4.5507,4.5515,4.5606,4.5621,4.5568,4.5729,4.5671,4.5683,4.5715,4.5733,4.5747,4.5742,4.5509,0,0,0,0,0,4.5311,4.5366,4.5387,4.5471,4.5488,4.5494,4.5524,4.5515,4.5548,4.5561,4.5578,4.5612,4.5665,4.57,4.5749,4.5856,4.5864,4.5905,4.592,4.5931,4.5943,4.6002,4.6022,4.5815,4.5815,4.5814,0,0,4.5364,4.5385,4.5421,4.5485,4.5508,4.5566,4.5505,4.5568,4.5612,4.5571,4.5654,4.5668,4.5704,4.5802,4.5846,4.5817,4.6002,4.5943,4.5952,4.5957,4.6014,4.6033,4.6051,4.5821,4.582,4.5819,0,0,4.549,4.5511,4.5585,4.561,4.5647,4.565,4.5668,4.5698,4.5706,4.5789,4.576,4.5811,4.5902,4.593,4.5956,4.6095,4.6071,4.6111,4.6186,4.6245,4.6261,4.6276,4.6327,4.6345,4.6123,4.6123,4.6123,0,4.5551,4.5636,4.5626,4.5692,4.5722,4.5687,4.5763,4.5788,4.5839,4.5861,4.5828,4.5943,4.5965,4.607,4.6104,4.6125,4.6147,4.6108,4.6259,4.6274,4.6287,4.6336,4.6355,4.6128,4.6127,4.6127,4.6126,0,4.5711,4.5771,4.5826,4.5877,4.5913,4.5983,4.5984,4.6022,4.6011,4.6018,4.6104,4.6129,4.6184,4.6208,4.6197,4.6313,4.6294,4.6261,4.6202,4.6312,4.6358,4.6376,4.6135,4.6133,4.6131,4.613,0,0,4.5878,4.5923,4.5943,4.5967,4.6005,4.6052,4.6122,4.6176,4.6209,4.6246,4.6305,4.6384,4.6354,4.6384,4.6376,4.6427,4.6538,4.6387,4.6388,4.6416,4.6668,4.6694,4.6715,4.6521,4.6525,4.6528,4.6665,0,4.6007,4.6129,4.6122,4.6236,4.6292,4.6261,4.6322,4.6354,4.6362,4.6412,4.6422,4.6479,4.6434,4.6452,4.6501,4.6514,4.6588,4.6503,4.6578,4.6581,4.6571,4.6739,4.6766,4.6895,4.6683,4.6686,4.6688,0,4.6174,4.6217,4.6337,4.6369,4.6393,4.6448,4.6497,4.6545,4.658,4.6583,4.6617,4.6601,4.6674,4.6613,4.6713,4.6656,4.6686,4.6697,4.6702,4.6709,4.6642,4.6753,4.6935,4.6956,4.6716,4.6714,4.6712,0,4.6286,4.6374,4.6458,4.6479,4.6517,4.6557,4.6575,4.6607,4.664,4.6684,4.6706,4.6758,4.6786,4.6827,4.6826,4.6782,4.6929,4.6868,4.6935,4.6935,4.6967,4.6966,4.7159,4.6985,4.6985,4.6984,4.6984,0,4.6432,4.6507,4.6509,4.6561,4.6645,4.6636,4.672,4.6734,4.6763,4.6818,4.6794,4.6846,4.6841,4.6894,4.6894,4.6978,4.6991,4.6996,4.6996,4.6999,4.6999,4.702,4.7011,4.6989,4.6988,4.6987,4.6986,0,4.6572,4.6576,4.6665,4.6695,4.6705,4.6765,4.6791,4.6841,4.6848,4.6918,4.6934,4.6945,4.7007,4.701,4.708,4.708,4.7183,4.7172,4.7172,4.717,4.7237,4.7232,4.7452,4.7482,4.7287,4.7289,4.729,0,4.6665,4.6723,4.6759,4.6794,4.6815,4.6871,4.6905,4.69,4.6937,4.6982,4.7027,4.7086,4.7133,4.7233,4.7248,4.7302,4.7293,4.7367,4.7301,4.7304,4.7296,4.7294,4.73,4.738,4.7382,4.7384,4.7385,0,4.6832,4.6831,4.6881,4.6933,4.6974,4.7014,4.7052,4.7082,4.7081,4.7124,4.7187,4.7223,4.7296,4.7355,4.7409,4.7428,4.7408,4.7406,4.7424,4.7429,4.7427,4.7431,4.7208,4.7401,4.7399,4.7398,4.7397,4.7397,4.6952,4.7002,4.7036,4.7093,4.7121,4.7157,4.7206,4.7219,4.7271,4.733,4.7323,4.7393,4.7429,4.7498,4.7523,4.7578,4.7553,4.7579,4.7587,4.7594,4.7602,4.7418,4.7587,4.7587,4.7587,4.7586,4.7586,0,4.7119,4.7139,4.7192,4.7245,4.7291,4.7266,4.7307,4.7347,4.7409,4.7443,4.749,4.7563,4.7621,4.7642,4.7699,4.7739,4.7731,4.7755,4.7752,4.7758,4.762,4.7599,4.776,4.776,4.776,4.776,4.776,4.776,4.7211,4.7295,4.7299,4.7397,4.7417,4.7485,4.7511,4.7545,4.7572,4.7655,4.7703,4.7716,4.7745,4.7804,4.7857,4.7862,4.7885,4.7912,4.7913,4.7784,4.7767,4.775,4.773,4.7917,4.7917,4.8046,4.8048,4.8049]},{"header":{"parameterUnit":"m.s-1","parameterCategory":1,"la1":30.2991,"la2":30.254,"lo1":-89.0895,"lo2":-89.0444,"dy":0.0017,"dx":0.0017,"nx":28,"ny":28,"refTime":"2023-04-29T21:00:00:Z","depth":0,"parameterNumber":3,"parameterNumberName":"V-component_of_WINDS"},"data":[0,0,0,0,0,0,0,0,0,0,0,0,0,0,0,0,0,0,0,0,0,0,0,0,0,0,0,0,0,0,0,0,0,0,0,0,0,0,0,0,0,0,0,0,0,0,0,0,0,0,0,0,0,0,0,0,0,0,-0.7792,-0.7793,0,-0.7807,-0.7807,-0.7808,-0.7861,-0.7863,-0.7864,-0.7865,-0.7877,-0.7876,-0.7875,0,0,0,0,0,0,0,0,0,0,0,0,0,-0.7808,-0.7807,-0.7792,-0.7793,-0.7793,-0.7807,-0.7807,-0.7808,-0.7861,-0.7863,-0.7864,-0.7866,-0.7877,-0.7876,-0.7875,0,0,0,0,0,0,0,0,0,0,0,0,0,-0.781,-0.7807,-0.7792,-0.7821,-0.7824,-0.7807,-0.7807,-0.7808,-0.7861,-0.7863,-0.7865,-0.7866,-0.7878,-0.7876,-0.7875,-0.7831,0,0,-0.7871,-0.7871,0,0,0,0,0,0,0,0,-0.7809,-0.7809,-0.7817,-0.7819,-0.7822,-0.7834,-0.7817,-0.7815,-0.786,-0.7847,-0.7865,-0.7867,-0.7861,-0.7861,-0.786,-0.7831,-0.7832,-0.7871,-0.7871,-0.787,-0.787,0,0,0,0,0,0,0,-0.7809,-0.7809,-0.7798,-0.7817,-0.782,-0.7833,-0.7835,-0.7817,-0.7843,-0.7848,-0.7852,-0.7853,-0.7863,-0.7861,-0.7861,-0.7832,-0.7871,-0.787,-0.7869,-0.7869,-0.7766,-0.7765,0,0,0,0,0,0,-0.7805,-0.7808,-0.7798,-0.7799,-0.782,-0.7831,-0.7834,-0.7829,-0.7844,-0.7848,-0.7852,-0.7856,-0.7862,-0.7862,-0.7861,-0.7809,-0.787,-0.7869,-0.7868,-0.7768,-0.7766,-0.7764,0,0,0,0,0,0,-0.7805,-0.7804,-0.7797,-0.7805,-0.7805,-0.7829,-0.7823,-0.7828,-0.7826,-0.7846,-0.7851,-0.7845,-0.7864,-0.7863,-0.7838,-0.7811,-0.7868,-0.7867,-0.7771,-0.7768,-0.7765,-0.7705,0,0,0,0,0,0,-0.7806,-0.7804,-0.7788,-0.7804,-0.7804,-0.7774,-0.7821,-0.7827,-0.7824,-0.783,-0.7841,-0.7845,-0.7865,-0.7839,-0.7837,-0.781,-0.7866,-0.7773,-0.7769,-0.7766,-0.771,-0.7701,-0.7693,0,0,0,0,0,-0.7806,-0.777,-0.7786,-0.7785,-0.7785,-0.7772,-0.7772,-0.7797,-0.7822,-0.7805,-0.7818,-0.7845,-0.7814,-0.7836,-0.7834,-0.7806,-0.7775,-0.777,-0.7766,-0.7714,-0.7703,-0.7693,0,0,0,0,0,0,-0.7748,-0.7772,-0.7791,-0.7759,-0.7763,-0.7782,-0.7761,-0.7785,-0.7781,-0.7786,-0.7816,-0.7818,-0.7789,-0.7795,-0.7819,-0.7764,-0.7799,-0.7794,-0.776,-0.775,-0.7741,-0.774,-0.7865,0,0,0,0,0,-0.7732,-0.7721,-0.7742,-0.7712,-0.7713,-0.7737,-0.7733,-0.7751,-0.7757,-0.7758,-0.777,-0.7773,-0.7764,-0.7758,-0.7751,-0.7712,-0.7714,-0.7691,-0.7683,-0.7676,-0.767,-0.7649,-0.7639,-0.7749,-0.7749,-0.7749,0,0,-0.7698,-0.771,-0.7701,-0.7701,-0.7706,-0.7693,-0.7738,-0.7722,-0.7713,-0.7756,-0.7733,-0.7741,-0.7747,-0.7714,-0.77,-0.7719,-0.7641,-0.767,-0.7664,-0.7663,-0.7644,-0.7633,-0.7624,-0.7746,-0.7747,-0.7747,0,0,-0.7629,-0.7637,-0.7612,-0.7617,-0.7626,-0.7642,-0.7636,-0.7651,-0.7658,-0.7636,-0.7667,-0.7656,-0.7641,-0.7643,-0.7642,-0.7575,-0.7598,-0.7572,-0.7527,-0.7506,-0.7497,-0.749,-0.7464,-0.7455,-0.7567,-0.7566,-0.7566,0,-0.7585,-0.7567,-0.7596,-0.7579,-0.7577,-0.7617,-0.7592,-0.7595,-0.76,-0.7597,-0.7618,-0.76,-0.7606,-0.7575,-0.7558,-0.7557,-0.755,-0.757,-0.7496,-0.7489,-0.7482,-0.7459,-0.7449,-0.7563,-0.7563,-0.7564,-0.7564,0,-0.7512,-0.75,-0.7479,-0.7484,-0.748,-0.7459,-0.7483,-0.7476,-0.7496,-0.7509,-0.7485,-0.7495,-0.749,-0.7485,-0.7503,-0.7455,-0.7466,-0.7491,-0.7527,-0.7468,-0.7446,-0.7437,-0.7558,-0.7559,-0.756,-0.7561,0,0,-0.7406,-0.7428,-0.7419,-0.7422,-0.7434,-0.7425,-0.7405,-0.7402,-0.7394,-0.7397,-0.738,-0.7366,-0.739,-0.7389,-0.7408,-0.739,-0.7334,-0.7417,-0.7418,-0.74,-0.7281,-0.7261,-0.725,-0.7351,-0.7349,-0.7348,-0.728,0,-0.7339,-0.7307,-0.7333,-0.7296,-0.7284,-0.7322,-0.7304,-0.731,-0.7322,-0.7313,-0.7326,-0.7316,-0.7348,-0.7348,-0.7332,-0.7344,-0.731,-0.735,-0.7334,-0.7333,-0.733,-0.7239,-0.7218,-0.7153,-0.7272,-0.727,-0.7269,0,-0.7257,-0.7256,-0.7218,-0.7233,-0.7229,-0.7213,-0.7212,-0.7204,-0.721,-0.722,-0.7219,-0.7243,-0.7224,-0.726,-0.7233,-0.726,-0.7255,-0.726,-0.7258,-0.7256,-0.7296,-0.7233,-0.7133,-0.7123,-0.7256,-0.7257,-0.7258,0,-0.7181,-0.7171,-0.7147,-0.7148,-0.7165,-0.7153,-0.7159,-0.7168,-0.7164,-0.7163,-0.7161,-0.7157,-0.7154,-0.715,-0.7172,-0.7197,-0.7142,-0.7181,-0.7149,-0.7148,-0.7134,-0.7134,-0.703,-0.7133,-0.7133,-0.7134,-0.7134,0,-0.7103,-0.7078,-0.7114,-0.7098,-0.7071,-0.7101,-0.7073,-0.7083,-0.709,-0.7077,-0.711,-0.7096,-0.7127,-0.7117,-0.7134,-0.7108,-0.7107,-0.7114,-0.7118,-0.711,-0.7109,-0.7106,-0.711,-0.7131,-0.7132,-0.7132,-0.7132,0,-0.7014,-0.7037,-0.7013,-0.7031,-0.7035,-0.7014,-0.7029,-0.7016,-0.7031,-0.7014,-0.7011,-0.7034,-0.7024,-0.7046,-0.7038,-0.705,-0.7013,-0.7025,-0.7011,-0.7014,-0.698,-0.6982,-0.687,-0.6856,-0.6968,-0.6967,-0.6967,0,-0.6962,-0.6943,-0.696,-0.6954,-0.6959,-0.6949,-0.6946,-0.6974,-0.6969,-0.6975,-0.696,-0.6953,-0.6948,-0.693,-0.6945,-0.6939,-0.6951,-0.6912,-0.695,-0.6942,-0.6948,-0.6949,-0.6946,-0.6903,-0.6902,-0.69,-0.69,0,-0.6866,-0.6879,-0.6873,-0.6871,-0.6867,-0.6867,-0.6869,-0.6862,-0.6892,-0.6884,-0.6875,-0.6871,-0.6864,-0.6855,-0.6853,-0.6859,-0.6883,-0.6888,-0.688,-0.687,-0.6862,-0.6865,-0.6988,-0.689,-0.6891,-0.6891,-0.6892,-0.6892,-0.6793,-0.6779,-0.6788,-0.6781,-0.6786,-0.6787,-0.6775,-0.6788,-0.6781,-0.6778,-0.6795,-0.6781,-0.6788,-0.6788,-0.6791,-0.678,-0.6797,-0.6786,-0.6783,-0.6779,-0.6773,-0.6865,-0.678,-0.678,-0.678,-0.678,-0.6781,0,-0.6699,-0.6707,-0.67,-0.6702,-0.6696,-0.6722,-0.6725,-0.6718,-0.6706,-0.6711,-0.6706,-0.6694,-0.6686,-0.6701,-0.6696,-0.6684,-0.6695,-0.6681,-0.6681,-0.6682,-0.6758,-0.6765,-0.6672,-0.6672,-0.6672,-0.6672,-0.6672,-0.6672,-0.6649,-0.6625,-0.6638,-0.6617,-0.6625,-0.6613,-0.6612,-0.6613,-0.6617,-0.6603,-0.6597,-0.6608,-0.6616,-0.6611,-0.6605,-0.661,-0.6605,-0.6587,-0.6595,-0.6666,-0.6677,-0.6687,-0.6693,-0.6586,-0.6586,-0.652,-0.6519,-0.6519]}]]